Regional Weather Roundup
Issued by NWS Upton, NY

Current Version | Previous Version | Text Only | Print | Product List | Glossary On
Versions: 1 2 3 4 5 6 7 8 9 10 11 12 13 14 15 16 17 18 19 20 21 22 23 24 25 26 27
000
ASUS41 KOKX 291904
RWROKX

REGIONAL WEATHER ROUNDUP
NATIONAL WEATHER SERVICE NEW YORK NY
300 PM EDT FRI APR 29 2016

NOTE: "FAIR" INDICATES FEW OR NO CLOUDS BELOW 12,000 FEET WITH NO
SIGNIFICANT WEATHER AND/OR OBSTRUCTIONS TO VISIBILITY.

NYZ071-072-176-178-NJZ106-104-292000-
NEW YORK CITY METRO AREA


CITY           SKY/WX    TMP DP  RH WIND       PRES   REMARKS
CENTRAL PARK   CLOUDY    57  34  41 NE8       30.10F
LAGUARDIA APRT CLOUDY    55  40  56 NE14      30.08F
KENNEDY INTL   PTSUNNY   55  28  35 E17G23    30.10F
NEWARK/LIBERTY CLOUDY    55  31  39 E13G20    30.08S
BRNX BOT. GARD   N/A     52  37  58 E7        30.12R
TETERBORO      CLOUDY    55  33  43 E7        30.07F
$$

NYZ177-179-078>081-292000-
LONG ISLAND NEW YORK

CITY           SKY/WX    TMP DP  RH WIND       PRES   REMARKS
FARMINGDALE    CLOUDY    53  29  39 E12       30.09F
ISLIP          PTSUNNY   54  29  38 SE16      30.08F
SHIRLEY        CLOUDY    54  28  36 VRB7      30.09F
RIVERHEAD        N/A     54  36  50 S2        30.09F
WESTHAMPTON    CLOUDY    49  32  52 E10       30.10F
EAST HAMPTON   CLOUDY    50  32  50 E14G23    30.11F
MONTAUK POINT    N/A     50  34  54 NE13G20   30.13F
$$

NYZ052-065-067-292000-
HUDSON VALLEY

CITY           SKY/WX    TMP DP  RH WIND       PRES   REMARKS
WHITE PLAINS   PTSUNNY   54  33  45 E9G17     30.08S
NEWBURGH       CLOUDY    55  34  44 SE12      30.08S
MONTGOMERY     CLOUDY    57  33  40 S7        30.06S
POUGHKEEPSIE   CLOUDY    58  30  34 SE8       30.07S
ALBANY         CLOUDY    58  36  43 S13       30.06S
$$

NJZ001-105-106-008-010-013-015-019>022-104-292000-
NEW JERSEY

CITY           SKY/WX    TMP DP  RH WIND       PRES   REMARKS
NEWARK/LIBERTY CLOUDY    55  31  39 E13G20    30.08S
TETERBORO      CLOUDY    55  33  43 E7        30.07F
CALDWELL       CLOUDY    55  30  38 E12       30.08S
MORRISTOWN     CLOUDY    55  30  38 S10G18    30.08S
SOMERVILLE     CLOUDY    52  37  56 SE8       30.07R
SUSSEX         CLOUDY    54  31  41 VRB3      30.08S
ANDOVER          N/A     53  27  36 VRB5      30.07R
TRENTON        CLOUDY    51  38  60 E12       30.07S
MILLVILLE      LGT RAIN  50  47  89 NE9       30.05R FOG
ATLANTIC CITY  CLOUDY    50  45  83 NE13      30.05R
WRIGHTSTOWN    CLOUDY    50  42  74 E8        30.05R
TOMS RIVER     CLOUDY    48  41  76 E7        30.09R
BELMAR         CLOUDY    49  40  71 E9        30.09S
$$

PAZ047>061-062-071-292000-
EASTERN PENNSYLVANIA

CITY           SKY/WX    TMP DP  RH WIND       PRES   REMARKS
PHILADELPHIA   LGT RAIN  52  40  63 E10       30.08R
ALLENTOWN      CLOUDY    53  33  46 E10       30.07R
SCRANTON       CLOUDY    53  34  48 VRB3      30.05R
$$

CTZ002-004>006-009-010-012-RIZ004-006-007-MAZ004-011-015-292000-
SOUTHERN NEW ENGLAND
 IN CT

CITY           SKY/WX    TMP DP  RH WIND       PRES   REMARKS
BRADLEY INTL   PTSUNNY   58  35  42 S12G17    30.07F
HARTFORD       PTSUNNY   59  38  45 SE7       30.08F
DANBURY        CLOUDY    52  31  44 SE8       30.10S
WTRBRY/OXFORD  CLOUDY    54  32  43 SE7       30.09F
BRIDGEPORT     CLOUDY    52  39  61 E16       30.11F
MERIDEN        CLOUDY    57  34  41 E8        30.08F
NEW HAVEN      PTSUNNY   52  38  58 E17       30.10F
CHESTER        FAIR      52  36  54 SE12      30.09F
GROTON         SUNNY     51  40  65 E14       30.11F
WILLIMANTIC    CLOUDY    59  34  39 S10G20    30.08F

 IN RI

CITY           SKY/WX    TMP DP  RH WIND       PRES   REMARKS
PROVIDENCE     MOSUNNY   54  32  43 S10       30.12F
BLOCK ISLAND   SUNNY     48  35  60 E13G20    30.13F
WESTERLY       CLOUDY    51  31  46 SE15      30.13F

 IN MA

CITY           SKY/WX    TMP DP  RH WIND       PRES   REMARKS
BOSTON         MOSUNNY   50  36  58 E20       30.14F
WORCESTER      MOSUNNY   55  29  36 VRB3      30.07F
WESTFIELD      PTSUNNY   59  34  39 SW6G14    30.06F
PROVINCETOWN   SUNNY     51  30  44 E8        30.15F
NANTUCKET      CLOUDY    50  36  58 E14G22    30.13F
$$

ANZ330-335-338-340-345-350-353-355-292000-
COASTAL MARINE OBSERVATIONS


STATION/POSITION TIME  SKY/WX   TEMP    WIND        PRES    VSBY  WAVE
                                AIR SEA DIR/SP/G                  HT/PER
                 (UTC)          (F)     (DEG/KT/KT) (MB)    (MI)  (FT/S)
NY HARB ENTRANCE 1750            48 51   80/ 19/ 21 1018.3          6/ 6
20S FIRE ISLAND  1750            47 49   70/ 19/ 23 1018.1          7/ 6
GREAT SOUTH BAY  1815            49 58   80/ 16/ 21   N/A
23 SSW MONTAUK P 1750            45 47   80/ 17/ 19 1019.1          5/ 6
15 E BARNEGAT LI 1822               51                N/A           7/ 7
HUDSON CANYON    1750            50 51              1016.6          7/ 7
KINGS POINT      1800            55 53              1018.4
EXECUTION ROCKS  NOT AVBL
CENTRAL LI SOUND 1800            47      90/ 16/ 19   N/A           3/ 4
EASTERN LI SOUND 1800            48 48   90/ 14/ 17   N/A
ROBBINS REEF     1800            52     120/ 17/ 20 1017.9
$$


>>>>>>>>>>>>>>>>>>>>>>>>>>>> KEY <<<<<<<<<<<<<<<<<<<<<<<<<<<
>                                                          <
>     SKY/WX - SKY CONDITION/PRESENT WEATHER               <
>     TMP    - TEMPERATURE IN FAHRENHEIT                   <
>     DP     - DEWPOINT IN FAHRENHEIT                      <
>     RH     - RELATIVE HUMIDITY IN PERCENT                <
>     WIND   - DIRECTION AND SPEED IN MPH                  <
>     PRES   - MEAN SEA LEVEL PRESSURE IN INCHES OF HG     <
>     WCI    - WIND CHILL INDEX                            <
>     VSB    - VISIBILITY IN MILES                         <
>     HX     - HEAT INDEX                                  <
>     TC     - TEMPERATURE IN CELSIUS                      <
>     VRB    - VARIABLE WIND DIRECTION                     <
>                                                          <
>>>>>>>>>>>>>>>>>>>>>>>>>>>> KEY <<<<<<<<<<<<<<<<<<<<<<<<<<<






USA.gov is the U.S. government's official web portal to all federal, state and local government web resources and services.